COSMOS 1475

Satellite information

Favourite Embed

Satellite Type and Status

PAYLOADIN ORBIT

Key statistics

Satellite COSMOS 1475 at a glance.

Uptime

15458

Days in orbit

Revolutions

≈ 12.5

Per day

Orbit

LEO

Low Earth Orbit

Inclination

74.0

Latest

Satellite identification and parameters

Extended collection of information and parameters for COSMOS 1475.

Object identification

Identified? True

Debris? False

Object name: COSMOS 1475

International designator: 1983-069C

Object number (NORAD): 14173

Object ID (CCSDS): 14173

Country: COMMONWEALTH OF INDEPENDENT STATES (CIS)

Current information (Y/N): Y

RCS size: MEDIUM

Orbital parameters

Period: 114.78 minutes

Inclination: 74.0228 deg

SMA: 7823.548 km

Apoapsis: 1462.088 km

Periapsis: 1428.737 km

RAAN: 101.9662 deg

Eccentricy: 0.00213146

Argument of periapsis: 70.4083 deg

Mean anomaly: 345.8609 deg

Mean motion: 12.54576485 rev/day

Mean motion (dot): 0.00000004 rev/day2

B* drag term: 0.00012499536 1/REarth

Two-line elements (TLE)

Creation date: Oct. 31, 2025, 3 a.m.

Reference frame: TEME

Reference center: EARTH

Epoch: Oct. 30, 2025, 11:40 a.m. UTC

TLE line 0: 0 COSMOS 1475

TLE line 1: 1 14173U 83069C 25303.48630742 .00000004 00000-0 12500-3 0 9994

TLE line 2: 2 14173 74.0228 101.9662 0021315 70.4083 345.8609 12.54576485938181

Live tracking on map

Real-time ground track for satellite COSMOS 1475.

In-orbit conjunctions

A list of the most updated potential collisions computed for object COSMOS 1475.

Target Orbit TCA Probability of collision Miss distance Type
SL-14 R/B LEO 2025-09-21 06:24:34 0.0001055112 71.0 (m) ROCKET BODY
COSMOS 1231 LEO 2024-11-01 19:20:21 0.0001166699 171.0 (m) PAYLOAD

Associated space launch

Military communications satellites

COSMOS 1475 was lifted into orbit during the mission ‘Kosmos-3M | Strela-1M 265-272’, on board a Kosmos-3M space rocket.

The launch took place on July 6, 1983, 12:31 a.m. from 132/2.

For more information about the launch, click the button.

Launch to space Kosmos-3M | Strela-1M 265-272
Kosmos-3M | Strela-1M 265-272

Agency: N/A

Status: Launch Successful

Launch date: July 6, 1983, 12:31 a.m. UTC

Rocket: Kosmos-3M

Launch pad: 132/2

Location: Plesetsk Cosmodrome, Russian Federation

...

Latest news about this satellite

There are no fresh news available about this satellite. Check back as we update our databases every day.


Newsletter sign-up

Weekly statistics, charts and insights to help you stay on top of the space industry.